Time,TemperatureF,DewpointF,PressureIn,WindDirection,WindDirectionDegrees,WindSpeedMPH,WindSpeedGustMPH,Humidity,HourlyPrecipIn,Conditions,Clouds,dailyrainin,SoftwareType,DateUTC
2013-04-20 00:01:00,54.8,51.3,29.94,NW,319,4.0,12.0,88,0.00,,---,0.47,VWS V14.01,2013-04-20 04:01:00,
2013-04-20 00:02:00,54.7,51.2,29.94,WNW,288,4.0,8.0,88,0.00,,---,0.00,VWS V14.01,2013-04-20 04:02:00,
2013-04-20 00:03:00,54.7,51.2,29.94,WNW,302,4.0,8.0,88,0.00,,---,0.00,VWS V14.01,2013-04-20 04:03:00,
2013-04-20 00:08:00,54.6,51.1,29.94,West,276,6.0,12.0,88,0.00,,---,0.00,VWS V14.01,2013-04-20 04:08:00,
2013-04-20 00:13:00,54.5,51.0,29.94,WNW,298,4.0,12.0,88,0.00,,---,0.00,VWS V14.01,2013-04-20 04:13:00,
2013-04-20 00:18:00,54.4,50.9,29.94,NNW,332,3.0,4.0,88,0.00,,---,0.00,VWS V14.01,2013-04-20 04:18:00,
2013-04-20 00:23:00,54.3,51.1,29.95,WNW,302,8.0,8.0,89,0.00,,---,0.00,VWS V14.01,2013-04-20 04:23:00,
2013-04-20 00:28:00,54.1,50.9,29.95,NNW,337,2.0,11.0,89,0.00,,---,0.00,VWS V14.01,2013-04-20 04:28:00,
2013-04-20 00:33:00,54.1,50.9,29.95,NNW,331,2.0,9.0,89,0.00,,---,0.00,VWS V14.01,2013-04-20 04:33:00,
2013-04-20 00:39:00,54.0,51.1,29.95,WNW,293,3.0,9.0,90,0.00,,---,0.00,VWS V14.01,2013-04-20 04:39:00,
2013-04-20 00:44:00,54.0,51.1,29.96,SSW,207,3.0,9.0,90,0.00,,---,0.00,VWS V14.01,2013-04-20 04:44:00,
2013-04-20 00:49:00,53.9,51.0,29.95,NW,315,3.0,7.0,90,0.00,,---,0.00,VWS V14.01,2013-04-20 04:49:00,
2013-04-20 00:54:00,53.8,50.9,29.95,WNW,282,1.0,7.0,90,0.00,,---,0.00,VWS V14.01,2013-04-20 04:54:00,
2013-04-20 00:59:00,53.7,50.8,29.96,WNW,296,1.0,7.0,90,0.00,,---,0.00,VWS V14.01,2013-04-20 04:59:00,
2013-04-20 01:04:00,53.7,50.8,29.95,WNW,291,3.0,8.0,90,0.00,,---,0.00,VWS V14.01,2013-04-20 05:04:00,
2013-04-20 01:09:00,53.7,51.1,29.94,NNW,334,2.0,8.0,91,0.00,,---,0.00,VWS V14.01,2013-04-20 05:09:00,
2013-04-20 01:14:00,53.7,51.1,29.94,NW,308,0.0,9.0,91,0.00,,---,0.00,VWS V14.01,2013-04-20 05:14:00,
2013-04-20 01:19:00,53.7,51.1,29.94,WNW,297,6.0,6.0,91,0.00,,---,0.00,VWS V14.01,2013-04-20 05:19:00,
2013-04-20 01:24:00,53.6,50.7,29.94,WNW,297,4.0,6.0,90,0.00,,---,0.00,VWS V14.01,2013-04-20 05:24:00,
2013-04-20 01:30:00,53.5,50.9,29.94,WNW,299,6.0,7.0,91,0.00,,---,0.00,VWS V14.01,2013-04-20 05:30:00,
2013-04-20 01:35:00,53.5,50.9,29.94,WNW,295,2.0,6.0,91,0.00,,---,0.00,VWS V14.01,2013-04-20 05:35:00,
2013-04-20 01:40:00,53.4,50.8,29.94,NNW,335,0.0,7.0,91,0.00,,---,0.00,VWS V14.01,2013-04-20 05:40:00,
2013-04-20 01:45:00,53.3,50.7,29.95,North,349,2.0,7.0,91,0.00,,---,0.00,VWS V14.01,2013-04-20 05:45:00,
2013-04-20 01:50:00,53.3,50.7,29.95,WNW,295,3.0,6.0,91,0.00,,---,0.00,VWS V14.01,2013-04-20 05:50:00,
2013-04-20 01:55:00,53.4,51.1,29.96,West,268,1.0,6.0,92,0.00,,---,0.00,VWS V14.01,2013-04-20 05:55:00,
2013-04-20 02:00:00,53.5,51.2,29.97,WNW,299,3.0,6.0,92,0.00,,---,0.00,VWS V14.01,2013-04-20 06:00:00,
2013-04-20 02:05:00,53.6,51.0,29.97,WNW,299,0.0,6.0,91,0.00,,---,0.00,VWS V14.01,2013-04-20 06:05:00,
2013-04-20 02:10:00,53.6,51.0,29.97,NW,304,2.0,6.0,91,0.00,,---,0.00,VWS V14.01,2013-04-20 06:10:00,
2013-04-20 02:15:00,53.6,51.3,29.98,West,275,0.0,6.0,92,0.00,,---,0.00,VWS V14.01,2013-04-20 06:15:00,
2013-04-20 02:20:00,53.5,50.9,29.98,NW,318,2.0,4.0,91,0.00,,---,0.00,VWS V14.01,2013-04-20 06:20:00,
2013-04-20 02:25:00,53.3,50.7,29.98,NNE,32,1.0,4.0,91,0.00,,---,0.00,VWS V14.01,2013-04-20 06:25:00,
2013-04-20 02:30:00,53.0,48.9,30.00,WNW,299,6.0,9.0,86,0.00,,---,0.00,VWS V14.01,2013-04-20 06:30:00,
2013-04-20 02:35:00,52.9,46.6,30.00,NW,313,5.0,9.0,79,0.00,,---,0.00,VWS V14.01,2013-04-20 06:35:00,
2013-04-20 02:41:00,52.6,46.3,29.99,NW,314,3.0,9.0,79,0.00,,---,0.00,VWS V14.01,2013-04-20 06:41:00,
2013-04-20 02:46:00,52.4,45.8,29.99,NNW,331,1.0,9.0,78,0.00,,---,0.00,VWS V14.01,2013-04-20 06:46:00,
2013-04-20 02:51:00,52.0,45.7,29.99,NNW,345,0.0,4.0,79,0.00,,---,0.00,VWS V14.01,2013-04-20 06:51:00,
2013-04-20 02:56:00,51.7,45.4,30.00,NNW,345,0.0,4.0,79,0.00,,---,0.00,VWS V14.01,2013-04-20 06:56:00,
2013-04-20 03:01:00,51.4,45.1,30.00,NNW,342,2.0,3.0,79,0.00,,---,0.00,VWS V14.01,2013-04-20 07:01:00,
2013-04-20 03:06:00,51.1,44.8,30.00,NNW,342,0.0,3.0,79,0.00,,---,0.00,VWS V14.01,2013-04-20 07:06:00,
2013-04-20 03:11:00,50.8,44.9,30.00,NW,320,1.0,3.0,80,0.00,,---,0.00,VWS V14.01,2013-04-20 07:11:00,
2013-04-20 03:16:00,50.6,45.0,30.00,NW,320,0.0,0.0,81,0.00,,---,0.00,VWS V14.01,2013-04-20 07:16:00,
2013-04-20 03:21:00,50.4,44.8,30.00,NNW,346,0.0,3.0,81,0.00,,---,0.00,VWS V14.01,2013-04-20 07:21:00,
2013-04-20 03:26:00,50.3,44.7,30.00,NW,325,0.0,3.0,81,0.00,,---,0.00,VWS V14.01,2013-04-20 07:26:00,
2013-04-20 03:31:00,50.5,43.9,30.01,NW,317,3.0,5.0,78,0.00,,---,0.00,VWS V14.01,2013-04-20 07:31:00,
2013-04-20 03:36:00,50.4,43.5,30.01,NNW,327,3.0,5.0,77,0.00,,---,0.00,VWS V14.01,2013-04-20 07:36:00,
2013-04-20 03:41:00,50.3,43.7,30.00,North,5,0.0,6.0,78,0.00,,---,0.00,VWS V14.01,2013-04-20 07:41:00,
2013-04-20 03:46:00,50.0,43.4,30.01,NNW,342,3.0,3.0,78,0.00,,---,0.00,VWS V14.01,2013-04-20 07:46:00,
2013-04-20 03:51:00,49.8,43.2,30.01,North,355,2.0,5.0,78,0.00,,---,0.00,VWS V14.01,2013-04-20 07:51:00,
2013-04-20 03:57:00,49.8,43.2,30.01,NNW,332,2.0,5.0,78,0.00,,---,0.00,VWS V14.01,2013-04-20 07:57:00,
2013-04-20 04:02:00,49.6,43.4,30.01,NNW,341,0.0,0.0,79,0.00,,---,0.00,VWS V14.01,2013-04-20 08:02:00,
2013-04-20 04:07:00,49.4,42.8,30.01,NNE,23,2.0,6.0,78,0.00,,---,0.00,VWS V14.01,2013-04-20 08:07:00,
2013-04-20 04:12:00,49.5,42.6,30.02,NNW,328,3.0,7.0,77,0.00,,---,0.00,VWS V14.01,2013-04-20 08:12:00,
2013-04-20 04:17:00,49.3,42.1,30.02,NNW,348,1.0,3.0,76,0.00,,---,0.00,VWS V14.01,2013-04-20 08:17:00,
2013-04-20 04:22:00,49.0,41.8,30.02,NNW,338,3.0,5.0,76,0.00,,---,0.00,VWS V14.01,2013-04-20 08:22:00,
2013-04-20 04:27:00,48.9,41.3,30.02,NNW,348,1.0,6.0,75,0.00,,---,0.00,VWS V14.01,2013-04-20 08:27:00,
2013-04-20 04:32:00,48.8,40.5,30.02,NNW,346,6.0,8.0,73,0.00,,---,0.00,VWS V14.01,2013-04-20 08:32:00,
2013-04-20 04:37:00,48.6,40.0,30.02,NNW,338,2.0,8.0,72,0.00,,---,0.00,VWS V14.01,2013-04-20 08:37:00,
2013-04-20 04:42:00,48.6,40.0,30.03,NNW,341,1.0,8.0,72,0.00,,---,0.00,VWS V14.01,2013-04-20 08:42:00,
2013-04-20 04:47:00,48.2,40.0,30.03,NNW,338,0.0,3.0,73,0.00,,---,0.00,VWS V14.01,2013-04-20 08:47:00,
2013-04-20 04:52:00,48.0,39.4,30.03,NNW,330,2.0,6.0,72,0.00,,---,0.00,VWS V14.01,2013-04-20 08:52:00,
2013-04-20 04:57:00,47.9,39.3,30.04,NNW,346,3.0,6.0,72,0.00,,---,0.00,VWS V14.01,2013-04-20 08:57:00,
2013-04-20 05:03:00,47.7,39.5,30.04,North,9,2.0,3.0,73,0.00,,---,0.00,VWS V14.01,2013-04-20 09:03:00,
2013-04-20 05:08:00,47.5,39.6,30.04,NNE,22,2.0,4.0,74,0.00,,---,0.00,VWS V14.01,2013-04-20 09:08:00,
2013-04-20 05:13:00,47.3,39.1,30.04,North,355,1.0,5.0,73,0.00,,---,0.00,VWS V14.01,2013-04-20 09:13:00,
2013-04-20 05:18:00,47.2,39.0,30.05,NNW,333,2.0,4.0,73,0.00,,---,0.00,VWS V14.01,2013-04-20 09:18:00,
2013-04-20 05:23:00,47.1,38.9,30.05,NW,311,1.0,5.0,73,0.00,,---,0.00,VWS V14.01,2013-04-20 09:23:00,
2013-04-20 05:28:00,46.9,39.1,30.05,NNW,334,2.0,5.0,74,0.00,,---,0.00,VWS V14.01,2013-04-20 09:28:00,
2013-04-20 05:33:00,46.8,39.0,30.05,NW,310,0.0,4.0,74,0.00,,---,0.00,VWS V14.01,2013-04-20 09:33:00,
2013-04-20 05:38:00,46.7,38.9,30.05,NW,322,2.0,5.0,74,0.00,,---,0.00,VWS V14.01,2013-04-20 09:38:00,
2013-04-20 05:43:00,46.4,38.6,30.05,North,355,4.0,5.0,74,0.00,,---,0.00,VWS V14.01,2013-04-20 09:43:00,
2013-04-20 05:48:00,46.3,38.5,30.06,NNW,345,1.0,3.0,74,0.00,,---,0.00,VWS V14.01,2013-04-20 09:48:00,
2013-04-20 05:53:00,46.0,38.2,30.06,NNW,344,2.0,4.0,74,0.00,,---,0.00,VWS V14.01,2013-04-20 09:53:00,
2013-04-20 05:58:00,45.9,38.1,30.06,NNW,337,0.0,4.0,74,0.00,,---,0.00,VWS V14.01,2013-04-20 09:58:00,
2013-04-20 06:03:00,45.6,37.8,30.06,NNW,331,0.0,4.0,74,0.00,,---,0.00,VWS V14.01,2013-04-20 10:03:00,
2013-04-20 06:08:00,45.4,37.6,30.07,NNW,342,2.0,6.0,74,0.00,,---,0.00,VWS V14.01,2013-04-20 10:08:00,
2013-04-20 06:13:00,45.4,37.6,30.07,NNW,328,1.0,6.0,74,0.00,,---,0.00,VWS V14.01,2013-04-20 10:13:00,
2013-04-20 06:18:00,45.3,37.5,30.07,NW,312,0.0,4.0,74,0.00,,---,0.00,VWS V14.01,2013-04-20 10:18:00,
2013-04-20 06:24:00,45.2,37.4,30.08,North,360,4.0,6.0,74,0.00,,---,0.00,VWS V14.01,2013-04-20 10:24:00,
2013-04-20 06:29:00,45.1,37.3,30.08,NNW,328,0.0,6.0,74,0.00,,---,0.00,VWS V14.01,2013-04-20 10:29:00,
2013-04-20 06:34:00,45.0,37.2,30.09,NNW,346,0.0,3.0,74,0.00,,---,0.00,VWS V14.01,2013-04-20 10:34:00,
2013-04-20 06:39:00,44.7,37.3,30.09,NNW,335,0.0,3.0,75,0.00,,---,0.00,VWS V14.01,2013-04-20 10:39:00,
2013-04-20 06:44:00,44.3,36.9,30.10,NNW,335,1.0,3.0,75,0.00,,---,0.00,VWS V14.01,2013-04-20 10:44:00,
2013-04-20 06:49:00,44.2,37.1,30.11,NNW,335,0.0,0.0,76,0.00,,---,0.00,VWS V14.01,2013-04-20 10:49:00,
2013-04-20 06:54:00,43.8,37.1,30.11,NNW,335,1.0,1.0,77,0.00,,---,0.00,VWS V14.01,2013-04-20 10:54:00,
2013-04-20 06:59:00,43.6,37.5,30.11,NNW,335,0.0,1.0,79,0.00,,---,0.00,VWS V14.01,2013-04-20 10:59:00,
2013-04-20 07:04:00,43.1,37.4,30.12,NNW,335,0.0,0.0,80,0.00,,---,0.00,VWS V14.01,2013-04-20 11:04:00,
2013-04-20 07:09:00,42.8,37.4,30.12,NNW,335,0.0,0.0,81,0.00,,---,0.00,VWS V14.01,2013-04-20 11:09:00,
2013-04-20 07:14:00,42.8,37.7,30.12,NNW,335,0.0,0.0,82,0.00,,---,0.00,VWS V14.01,2013-04-20 11:14:00,
2013-04-20 07:19:00,42.7,37.3,30.13,NNW,335,0.0,2.0,81,0.00,,---,0.00,VWS V14.01,2013-04-20 11:19:00,
2013-04-20 07:24:00,42.9,37.5,30.13,NNW,344,1.0,3.0,81,0.00,,---,0.00,VWS V14.01,2013-04-20 11:24:00,
2013-04-20 07:29:00,43.1,37.7,30.14,NNW,335,1.0,3.0,81,0.00,,---,0.00,VWS V14.01,2013-04-20 11:29:00,
2013-04-20 07:35:00,43.2,37.5,30.14,NNW,343,0.0,2.0,80,0.00,,---,0.00,VWS V14.01,2013-04-20 11:35:00,
2013-04-20 07:40:00,43.4,38.0,30.14,NNW,342,0.0,2.0,81,0.00,,---,0.00,VWS V14.01,2013-04-20 11:40:00,
2013-04-20 07:45:00,43.6,38.2,30.15,North,355,2.0,2.0,81,0.00,,---,0.00,VWS V14.01,2013-04-20 11:45:00,
2013-04-20 07:50:00,43.9,38.1,30.15,NW,325,2.0,5.0,80,0.00,,---,0.00,VWS V14.01,2013-04-20 11:50:00,
2013-04-20 07:55:00,44.7,38.6,30.15,NE,43,3.0,5.0,79,0.00,,---,0.00,VWS V14.01,2013-04-20 11:55:00,
2013-04-20 08:00:00,45.5,38.7,30.15,NW,325,0.0,5.0,77,0.00,,---,0.00,VWS V14.01,2013-04-20 12:00:00,
2013-04-20 08:05:00,45.9,38.8,30.15,NNE,25,1.0,3.0,76,0.00,,---,0.00,VWS V14.01,2013-04-20 12:05:00,
2013-04-20 08:10:00,46.5,38.7,30.16,North,350,1.0,8.0,74,0.00,,---,0.00,VWS V14.01,2013-04-20 12:10:00,
2013-04-20 08:15:00,46.8,38.3,30.16,NNW,327,3.0,8.0,72,0.00,,---,0.00,VWS V14.01,2013-04-20 12:15:00,
2013-04-20 08:20:00,47.2,37.9,30.16,NNW,333,1.0,6.0,70,0.00,,---,0.00,VWS V14.01,2013-04-20 12:20:00,
2013-04-20 08:25:00,47.7,38.0,30.16,NNW,344,1.0,8.0,69,0.00,,---,0.00,VWS V14.01,2013-04-20 12:25:00,
2013-04-20 08:30:00,47.8,38.1,30.16,NNE,19,0.0,8.0,69,0.00,,---,0.00,VWS V14.01,2013-04-20 12:30:00,
2013-04-20 08:36:00,48.0,37.6,30.17,NNW,346,3.0,8.0,67,0.00,,---,0.00,VWS V14.01,2013-04-20 12:36:00,
2013-04-20 08:41:00,48.3,37.5,30.17,North,360,5.0,9.0,66,0.00,,---,0.00,VWS V14.01,2013-04-20 12:41:00,
2013-04-20 08:46:00,48.4,37.2,30.17,NE,38,5.0,5.0,65,0.00,,---,0.00,VWS V14.01,2013-04-20 12:46:00,
2013-04-20 08:51:00,49.2,36.8,30.17,NNW,341,3.0,8.0,62,0.00,,---,0.00,VWS V14.01,2013-04-20 12:51:00,
2013-04-20 08:56:00,49.7,38.0,30.17,NNW,334,0.0,9.0,64,0.00,,---,0.00,VWS V14.01,2013-04-20 12:56:00,
2013-04-20 09:01:00,50.3,36.5,30.18,North,355,2.0,5.0,59,0.00,,---,0.00,VWS V14.01,2013-04-20 13:01:00,
2013-04-20 09:06:00,50.2,37.3,30.18,NNW,335,4.0,8.0,61,0.00,,---,0.00,VWS V14.01,2013-04-20 13:06:00,
2013-04-20 09:11:00,50.6,37.2,30.18,NE,55,1.0,8.0,60,0.00,,---,0.00,VWS V14.01,2013-04-20 13:11:00,
2013-04-20 09:17:00,50.6,35.9,30.18,NW,325,1.0,6.0,57,0.00,,---,0.00,VWS V14.01,2013-04-20 13:17:00,
2013-04-20 09:22:00,50.3,35.7,30.18,NNW,327,6.0,12.0,57,0.00,,---,0.00,VWS V14.01,2013-04-20 13:22:00,
2013-04-20 09:27:00,51.1,36.8,30.18,NW,316,8.0,12.0,58,0.00,,---,0.00,VWS V14.01,2013-04-20 13:27:00,
2013-04-20 09:32:00,51.4,37.1,30.18,NW,319,5.0,5.0,58,0.00,,---,0.00,VWS V14.01,2013-04-20 13:32:00,
2013-04-20 09:37:00,51.8,36.2,30.19,NNE,29,1.0,9.0,55,0.00,,---,0.00,VWS V14.01,2013-04-20 13:37:00,
2013-04-20 09:42:00,52.1,37.3,30.19,NNE,26,2.0,12.0,57,0.00,,---,0.00,VWS V14.01,2013-04-20 13:42:00,
2013-04-20 09:47:00,52.4,36.3,30.19,NW,314,4.0,6.0,54,0.00,,---,0.00,VWS V14.01,2013-04-20 13:47:00,
2013-04-20 09:52:00,52.7,37.9,30.20,NNE,14,3.0,9.0,57,0.00,,---,0.00,VWS V14.01,2013-04-20 13:52:00,
2013-04-20 09:57:00,52.6,36.0,30.20,NNW,327,1.0,9.0,53,0.00,,---,0.00,VWS V14.01,2013-04-20 13:57:00,
2013-04-20 10:02:00,53.1,37.4,30.20,East,86,2.0,5.0,55,0.00,,---,0.00,VWS V14.01,2013-04-20 14:02:00,
2013-04-20 10:07:00,53.5,36.3,30.20,NNW,340,7.0,10.0,52,0.00,,---,0.00,VWS V14.01,2013-04-20 14:07:00,
2013-04-20 10:12:00,53.7,37.0,30.20,WNW,290,5.0,10.0,53,0.00,,---,0.00,VWS V14.01,2013-04-20 14:12:00,
2013-04-20 10:17:00,54.0,35.3,30.21,NNW,328,4.0,9.0,49,0.00,,---,0.00,VWS V14.01,2013-04-20 14:17:00,
2013-04-20 10:22:00,53.9,35.7,30.21,North,355,2.0,10.0,50,0.00,,---,0.00,VWS V14.01,2013-04-20 14:22:00,
2013-04-20 10:27:00,54.3,37.5,30.21,NW,322,4.0,10.0,53,0.00,,---,0.00,VWS V14.01,2013-04-20 14:27:00,
2013-04-20 10:33:00,54.8,37.5,30.21,NW,319,1.0,8.0,52,0.00,,---,0.00,VWS V14.01,2013-04-20 14:33:00,
2013-04-20 10:38:00,54.5,34.7,30.21,North,11,4.0,9.0,47,0.00,,---,0.00,VWS V14.01,2013-04-20 14:38:00,
2013-04-20 10:43:00,54.2,36.5,30.21,ENE,63,1.0,11.0,51,0.00,,---,0.00,VWS V14.01,2013-04-20 14:43:00,
2013-04-20 10:48:00,53.6,35.4,30.21,NW,325,1.0,5.0,50,0.00,,---,0.00,VWS V14.01,2013-04-20 14:48:00,
2013-04-20 10:53:00,53.9,33.1,30.21,NNW,341,5.0,12.0,45,0.00,,---,0.00,VWS V14.01,2013-04-20 14:53:00,
2013-04-20 10:58:00,53.7,35.0,30.22,NNW,338,4.0,12.0,49,0.00,,---,0.00,VWS V14.01,2013-04-20 14:58:00,
2013-04-20 11:03:00,53.5,34.8,30.22,NW,308,3.0,8.0,49,0.00,,---,0.00,VWS V14.01,2013-04-20 15:03:00,
2013-04-20 11:08:00,54.7,35.9,30.22,WNW,297,5.0,8.0,49,0.00,,---,0.00,VWS V14.01,2013-04-20 15:08:00,
2013-04-20 11:13:00,55.1,34.7,30.22,NNW,336,4.0,10.0,46,0.00,,---,0.00,VWS V14.01,2013-04-20 15:13:00,
2013-04-20 11:18:00,55.4,36.6,30.22,North,360,4.0,8.0,49,0.00,,---,0.00,VWS V14.01,2013-04-20 15:18:00,
2013-04-20 11:23:00,56.0,35.0,30.22,North,355,7.0,11.0,45,0.00,,---,0.00,VWS V14.01,2013-04-20 15:23:00,
2013-04-20 11:28:00,55.8,36.4,30.22,NW,306,7.0,11.0,48,0.00,,---,0.00,VWS V14.01,2013-04-20 15:28:00,
2013-04-20 11:33:00,56.9,38.0,30.22,NNW,348,4.0,6.0,49,0.00,,---,0.00,VWS V14.01,2013-04-20 15:33:00,
2013-04-20 11:38:00,57.1,36.5,30.22,NW,313,3.0,8.0,46,0.00,,---,0.00,VWS V14.01,2013-04-20 15:38:00,
2013-04-20 11:43:00,57.2,35.5,30.22,NNW,344,7.0,10.0,44,0.00,,---,0.00,VWS V14.01,2013-04-20 15:43:00,
2013-04-20 11:48:00,58.0,35.7,30.22,NNW,327,8.0,8.0,43,0.00,,---,0.00,VWS V14.01,2013-04-20 15:48:00,
2013-04-20 11:54:00,57.5,36.9,30.22,NE,34,5.0,8.0,46,0.00,,---,0.00,VWS V14.01,2013-04-20 15:54:00,
2013-04-20 11:59:00,58.1,37.5,30.22,NW,305,3.0,8.0,46,0.00,,---,0.00,VWS V14.01,2013-04-20 15:59:00,
2013-04-20 12:04:00,58.8,37.0,30.22,West,280,3.0,7.0,44,0.00,,---,0.00,VWS V14.01,2013-04-20 16:04:00,
2013-04-20 12:09:00,59.2,37.3,30.22,NNW,336,4.0,8.0,44,0.00,,---,0.00,VWS V14.01,2013-04-20 16:09:00,
2013-04-20 12:14:00,59.1,38.4,30.22,North,350,5.0,8.0,46,0.00,,---,0.00,VWS V14.01,2013-04-20 16:14:00,
2013-04-20 12:19:00,58.4,35.4,30.22,NE,40,2.0,7.0,42,0.00,,---,0.00,VWS V14.01,2013-04-20 16:19:00,
2013-04-20 12:24:00,59.1,38.4,30.22,NW,314,7.0,7.0,46,0.00,,---,0.00,VWS V14.01,2013-04-20 16:24:00,
2013-04-20 12:29:00,59.2,37.3,30.22,NW,321,3.0,8.0,44,0.00,,---,0.00,VWS V14.01,2013-04-20 16:29:00,
2013-04-20 12:34:00,59.4,37.5,30.21,NNW,344,3.0,8.0,44,0.00,,---,0.00,VWS V14.01,2013-04-20 16:34:00,
2013-04-20 12:39:00,59.5,38.2,30.21,North,355,1.0,8.0,45,0.00,,---,0.00,VWS V14.01,2013-04-20 16:39:00,
2013-04-20 12:44:00,59.3,35.6,30.21,NNE,27,0.0,10.0,41,0.00,,---,0.00,VWS V14.01,2013-04-20 16:44:00,
2013-04-20 12:49:00,59.3,36.8,30.21,WNW,289,1.0,11.0,43,0.00,,---,0.00,VWS V14.01,2013-04-20 16:49:00,
2013-04-20 12:54:00,59.8,36.1,30.21,WNW,286,5.0,11.0,41,0.00,,---,0.00,VWS V14.01,2013-04-20 16:54:00,
2013-04-20 12:59:00,59.5,38.7,30.21,NNW,338,3.0,11.0,46,0.00,,---,0.00,VWS V14.01,2013-04-20 16:59:00,
2013-04-20 13:04:00,60.9,40.0,30.21,NNW,344,4.0,6.0,46,0.00,,---,0.00,VWS V14.01,2013-04-20 17:04:00,
2013-04-20 13:09:00,60.4,36.0,30.21,NW,306,2.0,9.0,40,0.00,,---,0.00,VWS V14.01,2013-04-20 17:09:00,
2013-04-20 13:15:00,61.0,37.8,30.21,North,355,10.0,10.0,42,0.00,,---,0.00,VWS V14.01,2013-04-20 17:15:00,
2013-04-20 13:20:00,60.8,39.3,30.20,NW,311,6.0,6.0,45,0.00,,---,0.00,VWS V14.01,2013-04-20 17:20:00,
2013-04-20 13:25:00,61.1,37.2,30.20,NNW,331,2.0,9.0,41,0.00,,---,0.00,VWS V14.01,2013-04-20 17:25:00,
2013-04-20 13:30:00,61.1,34.0,30.20,NNW,331,0.0,9.0,36,0.00,,---,0.00,VWS V14.01,2013-04-20 17:30:00,
2013-04-20 13:35:00,61.0,39.5,30.20,NNW,329,6.0,8.0,45,0.00,,---,0.00,VWS V14.01,2013-04-20 17:35:00,
2013-04-20 13:40:00,60.7,38.7,30.20,NNW,348,7.0,8.0,44,0.00,,---,0.00,VWS V14.01,2013-04-20 17:40:00,
2013-04-20 13:45:00,61.2,38.5,30.20,NNW,336,2.0,9.0,43,0.00,,---,0.00,VWS V14.01,2013-04-20 17:45:00,
2013-04-20 13:50:00,61.7,38.4,30.20,West,276,2.0,7.0,42,0.00,,---,0.00,VWS V14.01,2013-04-20 17:50:00,
2013-04-20 13:55:00,61.8,37.9,30.20,WNW,294,3.0,11.0,41,0.00,,---,0.00,VWS V14.01,2013-04-20 17:55:00,
2013-04-20 14:00:00,61.6,36.4,30.20,ENE,76,0.0,11.0,39,0.00,,---,0.00,VWS V14.01,2013-04-20 18:00:00,
2013-04-20 14:05:00,62.3,38.9,30.20,West,274,3.0,9.0,42,0.00,,---,0.00,VWS V14.01,2013-04-20 18:05:00,
2013-04-20 14:10:00,62.3,37.7,30.20,North,360,2.0,9.0,40,0.00,,---,0.00,VWS V14.01,2013-04-20 18:10:00,
2013-04-20 14:15:00,62.6,39.2,30.20,NW,315,2.0,9.0,42,0.00,,---,0.00,VWS V14.01,2013-04-20 18:15:00,
2013-04-20 14:20:00,62.5,39.7,30.20,WNW,285,2.0,6.0,43,0.00,,---,0.00,VWS V14.01,2013-04-20 18:20:00,
2013-04-20 14:26:00,62.6,39.2,30.20,NNE,22,3.0,8.0,42,0.00,,---,0.00,VWS V14.01,2013-04-20 18:26:00,
2013-04-20 14:31:00,61.6,38.3,30.20,North,355,4.0,6.0,42,0.00,,---,0.00,VWS V14.01,2013-04-20 18:31:00,
2013-04-20 14:36:00,62.3,38.9,30.20,NNW,345,1.0,9.0,42,0.00,,---,0.00,VWS V14.01,2013-04-20 18:36:00,
2013-04-20 14:41:00,62.7,40.5,30.20,NW,318,2.0,9.0,44,0.00,,---,0.00,VWS V14.01,2013-04-20 18:41:00,
2013-04-20 14:46:00,62.4,39.6,30.19,NNW,346,4.0,5.0,43,0.00,,---,0.00,VWS V14.01,2013-04-20 18:46:00,
2013-04-20 14:51:00,62.5,39.1,30.19,NW,313,1.0,8.0,42,0.00,,---,0.00,VWS V14.01,2013-04-20 18:51:00,
2013-04-20 14:56:00,63.1,37.1,30.19,WNW,294,5.0,8.0,38,0.00,,---,0.00,VWS V14.01,2013-04-20 18:56:00,
2013-04-20 15:01:00,62.7,36.8,30.19,NE,34,1.0,4.0,38,0.00,,---,0.00,VWS V14.01,2013-04-20 19:01:00,
2013-04-20 15:06:00,62.7,39.9,30.19,NNW,339,4.0,7.0,43,0.00,,---,0.00,VWS V14.01,2013-04-20 19:06:00,
2013-04-20 15:11:00,63.0,37.7,30.19,NW,317,2.0,10.0,39,0.00,,---,0.00,VWS V14.01,2013-04-20 19:11:00,
2013-04-20 15:16:00,63.1,37.1,30.19,NW,323,4.0,9.0,38,0.00,,---,0.00,VWS V14.01,2013-04-20 19:16:00,
2013-04-20 15:21:00,62.9,34.8,30.19,NE,51,1.0,9.0,35,0.00,,---,0.00,VWS V14.01,2013-04-20 19:21:00,
2013-04-20 15:26:00,62.9,36.2,30.19,WNW,288,7.0,9.0,37,0.00,,---,0.00,VWS V14.01,2013-04-20 19:26:00,
2013-04-20 15:31:00,62.7,35.4,30.19,NW,320,4.0,9.0,36,0.00,,---,0.00,VWS V14.01,2013-04-20 19:31:00,
2013-04-20 15:36:00,62.6,37.3,30.18,NW,320,4.0,9.0,39,0.00,,---,0.00,VWS V14.01,2013-04-20 19:36:00,
2013-04-20 15:42:00,62.8,37.5,30.18,WNW,287,3.0,9.0,39,0.00,,---,0.00,VWS V14.01,2013-04-20 19:42:00,
2013-04-20 15:47:00,63.2,37.2,30.18,NW,309,9.0,9.0,38,0.00,,---,0.00,VWS V14.01,2013-04-20 19:47:00,
2013-04-20 15:52:00,62.8,36.8,30.18,NW,313,3.0,9.0,38,0.00,,---,0.00,VWS V14.01,2013-04-20 19:52:00,
2013-04-20 15:57:00,63.5,38.1,30.18,NNW,340,6.0,9.0,39,0.00,,---,0.00,VWS V14.01,2013-04-20 19:57:00,
2013-04-20 16:02:00,63.2,36.5,30.18,NNW,336,3.0,8.0,37,0.00,,---,0.00,VWS V14.01,2013-04-20 20:02:00,
2013-04-20 16:07:00,63.0,36.3,30.18,NNW,327,2.0,8.0,37,0.00,,---,0.00,VWS V14.01,2013-04-20 20:07:00,
2013-04-20 16:12:00,63.2,36.5,30.18,NW,309,4.0,8.0,37,0.00,,---,0.00,VWS V14.01,2013-04-20 20:12:00,
2013-04-20 16:17:00,62.7,36.1,30.18,East,92,2.0,5.0,37,0.00,,---,0.00,VWS V14.01,2013-04-20 20:17:00,
2013-04-20 16:22:00,62.3,37.7,30.18,ESE,115,2.0,5.0,40,0.00,,---,0.00,VWS V14.01,2013-04-20 20:22:00,
2013-04-20 16:27:00,63.0,39.0,30.18,NNE,24,2.0,5.0,41,0.00,,---,0.00,VWS V14.01,2013-04-20 20:27:00,
2013-04-20 16:32:00,63.5,35.4,30.18,WSW,246,3.0,8.0,35,0.00,,---,0.00,VWS V14.01,2013-04-20 20:32:00,
2013-04-20 16:37:00,63.7,37.0,30.18,NNW,344,5.0,10.0,37,0.00,,---,0.00,VWS V14.01,2013-04-20 20:37:00,
2013-04-20 16:43:00,63.8,39.7,30.18,NNW,336,3.0,11.0,41,0.00,,---,0.00,VWS V14.01,2013-04-20 20:43:00,
2013-04-20 16:48:00,63.6,34.7,30.18,NE,44,0.0,9.0,34,0.00,,---,0.00,VWS V14.01,2013-04-20 20:48:00,
2013-04-20 16:53:00,63.9,36.5,30.18,NNW,333,2.0,9.0,36,0.00,,---,0.00,VWS V14.01,2013-04-20 20:53:00,
2013-04-20 16:58:00,63.7,34.8,30.18,NNW,345,1.0,9.0,34,0.00,,---,0.00,VWS V14.01,2013-04-20 20:58:00,
2013-04-20 17:03:00,63.5,35.4,30.18,North,5,3.0,7.0,35,0.00,,---,0.00,VWS V14.01,2013-04-20 21:03:00,
2013-04-20 17:08:00,63.3,35.2,30.18,NNW,342,5.0,7.0,35,0.00,,---,0.00,VWS V14.01,2013-04-20 21:08:00,
2013-04-20 17:13:00,63.5,38.1,30.18,NNW,327,2.0,7.0,39,0.00,,---,0.00,VWS V14.01,2013-04-20 21:13:00,
2013-04-20 17:18:00,63.5,37.5,30.18,North,355,4.0,7.0,38,0.00,,---,0.00,VWS V14.01,2013-04-20 21:18:00,
2013-04-20 17:23:00,62.8,34.0,30.18,North,350,1.0,7.0,34,0.00,,---,0.00,VWS V14.01,2013-04-20 21:23:00,
2013-04-20 17:28:00,62.7,35.4,30.19,North,11,0.0,7.0,36,0.00,,---,0.00,VWS V14.01,2013-04-20 21:28:00,
2013-04-20 17:33:00,63.2,37.2,30.19,NW,325,3.0,5.0,38,0.00,,---,0.00,VWS V14.01,2013-04-20 21:33:00,
2013-04-20 17:38:00,63.9,35.7,30.19,NNW,332,3.0,5.0,35,0.00,,---,0.00,VWS V14.01,2013-04-20 21:38:00,
2013-04-20 17:43:00,63.4,34.6,30.19,NNW,332,4.0,8.0,34,0.00,,---,0.00,VWS V14.01,2013-04-20 21:43:00,
2013-04-20 17:49:00,63.1,35.0,30.20,North,355,1.0,3.0,35,0.00,,---,0.00,VWS V14.01,2013-04-20 21:49:00,
2013-04-20 17:54:00,63.0,33.5,30.20,NE,55,1.0,5.0,33,0.00,,---,0.00,VWS V14.01,2013-04-20 21:54:00,
2013-04-20 17:59:00,63.0,34.2,30.20,ENE,74,1.0,7.0,34,0.00,,---,0.00,VWS V14.01,2013-04-20 21:59:00,
2013-04-20 18:04:00,62.6,34.6,30.20,ESE,120,0.0,5.0,35,0.00,,---,0.00,VWS V14.01,2013-04-20 22:04:00,
2013-04-20 18:09:00,62.6,33.9,30.20,North,5,0.0,6.0,34,0.00,,---,0.00,VWS V14.01,2013-04-20 22:09:00,
2013-04-20 18:14:00,62.8,36.2,30.20,NNW,342,1.0,6.0,37,0.00,,---,0.00,VWS V14.01,2013-04-20 22:14:00,
2013-04-20 18:19:00,63.0,36.3,30.20,NNW,333,0.0,2.0,37,0.00,,---,0.00,VWS V14.01,2013-04-20 22:19:00,
2013-04-20 18:25:00,62.9,36.9,30.20,North,355,3.0,5.0,38,0.00,,---,0.00,VWS V14.01,2013-04-20 22:25:00,
2013-04-20 18:30:00,62.6,34.6,30.20,ESE,105,0.0,5.0,35,0.00,,---,0.00,VWS V14.01,2013-04-20 22:30:00,
2013-04-20 18:35:00,62.5,35.2,30.20,East,90,0.0,3.0,36,0.00,,---,0.00,VWS V14.01,2013-04-20 22:35:00,
2013-04-20 18:40:00,62.4,34.4,30.20,East,98,0.0,4.0,35,0.00,,---,0.00,VWS V14.01,2013-04-20 22:40:00,
2013-04-20 18:45:00,62.5,35.2,30.20,ESE,117,0.0,4.0,36,0.00,,---,0.00,VWS V14.01,2013-04-20 22:45:00,
2013-04-20 18:50:00,62.7,36.1,30.20,North,5,1.0,5.0,37,0.00,,---,0.00,VWS V14.01,2013-04-20 22:50:00,
2013-04-20 18:56:00,62.5,34.5,30.21,North,355,3.0,5.0,35,0.00,,---,0.00,VWS V14.01,2013-04-20 22:56:00,
2013-04-20 19:01:00,62.3,37.0,30.21,NNW,340,1.0,5.0,39,0.00,,---,0.00,VWS V14.01,2013-04-20 23:01:00,
2013-04-20 19:06:00,61.8,33.2,30.21,North,11,0.0,1.0,34,0.00,,---,0.00,VWS V14.01,2013-04-20 23:06:00,
2013-04-20 19:11:00,61.8,37.2,30.21,North,11,0.0,1.0,40,0.00,,---,0.00,VWS V14.01,2013-04-20 23:11:00,
2013-04-20 19:16:00,61.5,36.3,30.21,North,11,0.0,0.0,39,0.00,,---,0.00,VWS V14.01,2013-04-20 23:16:00,
2013-04-20 19:21:00,60.9,36.4,30.22,NNE,17,0.0,2.0,40,0.00,,---,0.00,VWS V14.01,2013-04-20 23:21:00,
2013-04-20 19:26:00,60.2,36.4,30.22,NE,40,1.0,2.0,41,0.00,,---,0.00,VWS V14.01,2013-04-20 23:26:00,
2013-04-20 19:32:00,59.6,37.7,30.22,NE,40,0.0,0.0,44,0.00,,---,0.00,VWS V14.01,2013-04-20 23:32:00,
2013-04-20 19:37:00,58.8,38.1,30.22,NE,40,0.0,0.0,46,0.00,,---,0.00,VWS V14.01,2013-04-20 23:37:00,
2013-04-20 19:42:00,58.0,37.9,30.22,NE,40,0.0,0.0,47,0.00,,---,0.00,VWS V14.01,2013-04-20 23:42:00,
2013-04-20 19:47:00,57.1,38.7,30.22,NE,40,0.0,0.0,50,0.00,,---,0.00,VWS V14.01,2013-04-20 23:47:00,
2013-04-20 19:52:00,56.4,39.0,30.23,NE,40,0.0,0.0,52,0.00,,---,0.00,VWS V14.01,2013-04-20 23:52:00,
2013-04-20 19:57:00,55.6,39.7,30.23,NE,40,0.0,0.0,55,0.00,,---,0.00,VWS V14.01,2013-04-20 23:57:00,
2013-04-20 20:02:00,54.7,39.3,30.24,NE,40,0.0,0.0,56,0.00,,---,0.00,VWS V14.01,2013-04-21 00:02:00,
2013-04-20 20:07:00,53.7,39.3,30.24,NE,40,0.0,0.0,58,0.00,,---,0.00,VWS V14.01,2013-04-21 00:07:00,
2013-04-20 20:12:00,52.8,39.7,30.24,NE,40,0.0,0.0,61,0.00,,---,0.00,VWS V14.01,2013-04-21 00:12:00,
2013-04-20 20:18:00,52.1,40.3,30.24,NE,40,0.0,0.0,64,0.00,,---,0.00,VWS V14.01,2013-04-21 00:18:00,
2013-04-20 20:23:00,51.4,40.0,30.25,NE,40,0.0,0.0,65,0.00,,---,0.00,VWS V14.01,2013-04-21 00:23:00,
2013-04-20 20:28:00,50.8,39.9,30.25,NE,40,0.0,0.0,66,0.00,,---,0.00,VWS V14.01,2013-04-21 00:28:00,
2013-04-20 20:33:00,50.3,40.2,30.25,NE,40,0.0,0.0,68,0.00,,---,0.00,VWS V14.01,2013-04-21 00:33:00,
2013-04-20 20:38:00,49.9,40.2,30.26,NE,40,0.0,0.0,69,0.00,,---,0.00,VWS V14.01,2013-04-21 00:38:00,
2013-04-20 20:43:00,49.4,40.0,30.26,NE,40,0.0,0.0,70,0.00,,---,0.00,VWS V14.01,2013-04-21 00:43:00,
2013-04-20 20:48:00,49.0,40.0,30.26,NE,40,0.0,0.0,71,0.00,,---,0.00,VWS V14.01,2013-04-21 00:48:00,
2013-04-20 20:53:00,48.9,40.6,30.26,NE,40,0.0,0.0,73,0.00,,---,0.00,VWS V14.01,2013-04-21 00:53:00,
2013-04-20 20:59:00,48.7,40.1,30.27,NE,40,0.0,0.0,72,0.00,,---,0.00,VWS V14.01,2013-04-21 00:59:00,
2013-04-20 21:04:00,48.0,40.1,30.27,NE,40,0.0,0.0,74,0.00,,---,0.00,VWS V14.01,2013-04-21 01:04:00,
2013-04-20 21:09:00,47.6,40.1,30.27,NE,40,0.0,0.0,75,0.00,,---,0.00,VWS V14.01,2013-04-21 01:09:00,
2013-04-20 21:14:00,47.2,39.7,30.27,NE,40,0.0,0.0,75,0.00,,---,0.00,VWS V14.01,2013-04-21 01:14:00,
2013-04-20 21:19:00,46.9,39.4,30.28,NE,40,0.0,0.0,75,0.00,,---,0.00,VWS V14.01,2013-04-21 01:19:00,
2013-04-20 21:24:00,46.7,39.5,30.28,NE,40,0.0,0.0,76,0.00,,---,0.00,VWS V14.01,2013-04-21 01:24:00,
2013-04-20 21:29:00,46.5,39.4,30.28,NE,40,0.0,0.0,76,0.00,,---,0.00,VWS V14.01,2013-04-21 01:29:00,
2013-04-20 21:34:00,46.1,39.0,30.29,NE,40,0.0,0.0,76,0.00,,---,0.00,VWS V14.01,2013-04-21 01:34:00,
2013-04-20 21:40:00,45.8,39.3,30.29,NE,40,0.0,0.0,78,0.00,,---,0.00,VWS V14.01,2013-04-21 01:40:00,
2013-04-20 21:45:00,45.6,39.2,30.29,NE,40,0.0,0.0,78,0.00,,---,0.00,VWS V14.01,2013-04-21 01:45:00,
2013-04-20 21:50:00,45.6,39.5,30.30,NE,40,0.0,0.0,79,0.00,,---,0.00,VWS V14.01,2013-04-21 01:50:00,
2013-04-20 21:55:00,45.8,40.3,30.30,NE,40,0.0,0.0,81,0.00,,---,0.00,VWS V14.01,2013-04-21 01:55:00,
2013-04-20 22:00:00,45.4,40.2,30.30,NE,40,0.0,0.0,82,0.00,,---,0.00,VWS V14.01,2013-04-21 02:00:00,
2013-04-20 22:05:00,45.1,40.6,30.30,NE,40,0.0,0.0,84,0.00,,---,0.00,VWS V14.01,2013-04-21 02:05:00,
2013-04-20 22:10:00,45.5,41.3,30.30,NE,40,0.0,0.0,85,0.00,,---,0.00,VWS V14.01,2013-04-21 02:10:00,
2013-04-20 22:15:00,45.5,41.0,30.30,NE,40,0.0,0.0,84,0.00,,---,0.00,VWS V14.01,2013-04-21 02:15:00,
2013-04-20 22:21:00,45.0,40.8,30.30,NE,40,0.0,0.0,85,0.00,,---,0.00,VWS V14.01,2013-04-21 02:21:00,
2013-04-20 22:26:00,44.9,41.3,30.30,NE,40,0.0,0.0,87,0.00,,---,0.00,VWS V14.01,2013-04-21 02:26:00,
2013-04-20 22:31:00,44.6,40.7,30.31,NE,40,0.0,0.0,86,0.00,,---,0.00,VWS V14.01,2013-04-21 02:31:00,
2013-04-20 22:36:00,44.3,40.7,30.31,NE,40,0.0,0.0,87,0.00,,---,0.00,VWS V14.01,2013-04-21 02:36:00,
2013-04-20 22:41:00,44.1,40.8,30.31,NE,40,0.0,0.0,88,0.00,,---,0.00,VWS V14.01,2013-04-21 02:41:00,
2013-04-20 22:46:00,44.2,41.2,30.31,NE,40,0.0,0.0,89,0.00,,---,0.00,VWS V14.01,2013-04-21 02:46:00,
2013-04-20 22:51:00,43.9,40.6,30.31,NE,40,0.0,0.0,88,0.00,,---,0.00,VWS V14.01,2013-04-21 02:51:00,
2013-04-20 22:56:00,43.5,40.5,30.31,NE,40,0.0,0.0,89,0.00,,---,0.00,VWS V14.01,2013-04-21 02:56:00,
2013-04-20 23:02:00,43.4,40.4,30.31,NE,40,0.0,0.0,89,0.00,,---,0.00,VWS V14.01,2013-04-21 03:02:00,
2013-04-20 23:07:00,43.5,40.8,30.31,NE,40,0.0,0.0,90,0.00,,---,0.00,VWS V14.01,2013-04-21 03:07:00,
2013-04-20 23:12:00,43.2,40.2,30.31,NE,40,0.0,0.0,89,0.00,,---,0.00,VWS V14.01,2013-04-21 03:12:00,
2013-04-20 23:17:00,43.0,40.3,30.31,NE,40,0.0,0.0,90,0.00,,---,0.00,VWS V14.01,2013-04-21 03:17:00,
2013-04-20 23:22:00,42.9,40.2,30.31,NE,40,0.0,0.0,90,0.00,,---,0.00,VWS V14.01,2013-04-21 03:22:00,
2013-04-20 23:27:00,42.8,40.1,30.31,NE,40,0.0,0.0,90,0.00,,---,0.00,VWS V14.01,2013-04-21 03:27:00,
2013-04-20 23:32:00,42.6,39.9,30.31,NE,40,0.0,0.0,90,0.00,,---,0.00,VWS V14.01,2013-04-21 03:32:00,
2013-04-20 23:38:00,42.6,39.9,30.31,NE,40,0.0,0.0,90,0.00,,---,0.00,VWS V14.01,2013-04-21 03:38:00,
2013-04-20 23:43:00,43.1,40.7,30.32,NE,40,0.0,0.0,91,0.00,,---,0.00,VWS V14.01,2013-04-21 03:43:00,
2013-04-20 23:48:00,42.9,40.2,30.32,NE,40,0.0,0.0,90,0.00,,---,0.00,VWS V14.01,2013-04-21 03:48:00,
2013-04-20 23:53:00,42.5,39.8,30.32,NE,40,0.0,0.0,90,0.00,,---,0.00,VWS V14.01,2013-04-21 03:53:00,
2013-04-20 23:58:00,42.4,39.7,30.32,NE,40,0.0,0.0,90,0.00,,---,0.00,VWS V14.01,2013-04-21 03:58:00,